Theta_e
319 319 320 320 321 322 323 323 322 323 323 323 324 327 327 328 327 323 316 322 323 330 324 322 321 321 320 310 307 306 297 297 300 301 303 303 302 307 311 312 312 316 317 320 325
320 320 319 320 321 323 324 323 323 323 323 324 323 326 327 327 322 317 327 330 331 328 320 319 315 318 310 307 307 301 295 300 306 306 303 305 305 307 308 308 310 317 322 325 324
320 320 320 320 321 322 323 323 323 322 323 323 322 324 325 326 311 311 331 332 332 326 317 317 317 314 311 309 306 302 296 303 308 311 305 304 305 308 307 304 310 314 318 321 322
320 319 320 320 320 320 320 322 323 322 322 323 321 324 323 318 294 316 327 332 330 321 317 315 312 310 306 305 306 301 305 303 308 309 304 303 307 306 307 309 314 320 321 321 320
319 318 318 319 319 320 319 320 322 322 321 322 321 323 318 308 306 318 327 330 324 318 314 311 309 307 305 306 306 302 305 306 306 305 304 303 304 306 306 309 311 322 321 320 319
318 318 318 318 319 319 318 320 322 321 321 322 321 322 311 299 317 318 321 325 319 315 314 314 312 311 306 305 306 307 306 306 307 305 303 300 300 304 306 310 315 321 320 319 319
318 317 317 317 318 318 318 319 321 319 319 321 321 316 307 303 319 316 319 321 322 319 312 315 315 312 308 303 308 306 304 305 307 306 302 300 297 298 306 310 317 318 318 318 319
317 317 316 317 317 317 319 319 319 318 318 321 321 312 302 315 317 315 316 314 315 318 318 319 317 313 308 308 306 302 302 296 304 306 302 299 294 299 305 306 313 315 315 317 319
316 316 316 316 317 317 318 318 318 317 319 319 312 308 300 317 310 315 315 310 309 312 317 321 317 309 308 302 296 300 293 295 298 306 304 297 293 300 301 302 306 312 314 316 317
316 315 316 315 316 316 317 317 317 315 314 314 310 301 304 302 310 315 317 310 306 308 309 310 308 303 304 300 291 291 291 296 297 303 305 298 295 299 299 301 305 309 312 314 316
316 315 316 316 316 316 313 307 299 297 303 296 297 297 303 310 312 312 314 310 307 305 300 301 299 296 300 302 301 299 297 296 300 304 303 301 295 298 300 298 303 302 308 311 314
315 315 316 316 316 315 308 297 298 299 291 301 301 301 304 308 300 307 313 304 301 296 300 296 294 300 301 304 302 300 297 297 301 304 301 298 296 298 298 297 301 303 303 308 313
315 315 315 315 315 311 302 299 307 304 289 294 298 298 301 304 299 300 308 304 299 296 296 293 297 301 301 300 299 299 297 298 298 297 302 295 294 296 298 299 298 301 304 308 311
315 315 315 314 307 305 300 305 308 301 276 284 292 296 301 302 295 305 308 304 299 295 296 295 299 299 298 298 300 295 301 300 299 296 292 298 291 298 300 299 300 300 301 301 308
314 314 314 313 303 300 302 306 305 293 261 284 291 302 300 295 295 299 307 304 295 293 295 291 294 295 294 297 300 297 303 301 300 297 296 291 291 297 301 300 301 301 301 303 303
307 313 313 308 303 304 306 306 298 273 262 285 294 293 292 294 295 301 301 302 300 293 291 291 294 295 296 295 299 300 297 294 293 294 286 294 291 290 296 301 303 303 301 303 305
307 312 310 306 298 305 306 298 277 264 280 284 287 292 291 290 291 294 293 291 288 283 284 285 288 292 294 291 294 297 293 284 282 282 283 293 291 295 297 299 305 304 300 301 303
306 312 309 304 305 306 301 282 263 271 278 289 290 291 288 291 291 292 289 287 292 292 286 284 280 288 293 293 291 293 293 285 280 280 282 288 288 294 300 306 298 306 306 301 300
307 307 303 303 306 304 291 276 272 275 286 287 288 284 286 291 290 291 289 288 290 292 288 285 285 291 292 293 294 288 287 292 285 281 280 284 285 291 293 293 294 295 296 296 297
297 301 298 305 306 298 286 278 280 287 289 288 277 282 277 286 287 286 288 292 291 294 297 291 283 289 290 293 292 291 294 285 285 279 278 281 281 288 290 293 292 292 293 293 294
296 290 300 306 303 291 280 280 283 291 290 284 281 282 286 285 288 286 287 292 294 293 296 293 287 283 289 287 287 287 286 289 289 286 281 276 281 289 293 295 292 291 293 294 294
290 284 301 305 288 287 282 283 290 288 289 286 286 283 282 287 285 286 287 291 297 297 292 295 287 280 284 290 292 290 288 289 286 282 282 280 281 288 289 292 293 292 292 291 292
285 291 302 300 282 282 285 285 286 285 285 283 284 286 287 284 279 285 288 294 297 297 294 293 285 279 281 286 289 287 289 293 290 286 280 279 282 288 288 288 290 291 291 291 291
286 284 292 293 289 285 283 283 282 288 287 286 284 287 285 283 286 283 286 289 295 295 298 297 287 285 280 283 287 285 287 290 290 283 282 282 285 285 286 288 290 291 291 290 290
285 285 286 282 284 285 285 284 282 281 287 287 285 284 283 278 282 282 286 288 293 295 294 295 285 288 285 287 288 287 287 287 288 288 285 286 286 290 288 288 290 291 291 291 292
285 285 285 285 286 285 285 282 282 283 284 283 281 285 285 280 282 280 287 288 288 293 294 295 284 288 284 287 288 285 288 288 290 290 288 288 288 294 292 291 289 292 292 292 292
290 288 290 288 285 282 282 283 283 285 285 288 286 284 283 285 288 289 292 291 289 288 286 288 285 284 283 285 286 282 286 288 289 292 290 286 291 295 291 290 291 292 292 292 292
Wind_Speed
17 16 15 13 10 10 11 9 6 4 2 2 6 6 5 5 4 3 8 7 7 13 8 5 6 6 13 4 12 3 1 4 5 6 8 2 1 3 2 7 5 3 7 8 16
18 16 16 15 13 11 12 9 7 6 3 2 4 6 3 2 4 10 4 11 7 16 7 7 5 5 7 6 6 4 3 5 3 7 6 6 6 6 4 4 4 6 9 17 17
19 17 15 14 13 11 10 9 8 6 4 3 2 4 2 3 4 7 17 12 14 15 6 3 9 3 4 6 5 10 3 5 7 8 6 5 5 6 8 4 7 12 17 14 16
21 19 16 14 12 12 10 9 9 8 4 4 2 1 2 1 6 3 5 18 14 11 7 7 5 5 5 10 9 3 11 9 9 15 9 5 4 5 7 7 8 18 21 17 18
23 20 18 15 13 11 10 10 10 8 6 5 4 4 4 6 9 1 2 15 9 11 13 8 7 5 7 5 10 10 5 11 13 19 13 9 7 7 9 7 5 18 20 20 18
25 22 19 16 14 11 10 10 9 7 6 7 8 3 2 13 2 4 4 7 11 15 11 10 9 6 6 6 13 11 10 9 9 14 16 6 7 5 7 7 12 20 20 18 20
26 24 21 18 16 13 10 10 10 7 3 7 8 3 5 11 3 1 7 9 11 9 10 8 8 7 10 5 2 5 8 5 10 7 21 4 9 8 8 10 16 16 15 15 16
28 25 23 20 18 15 11 10 9 6 4 9 10 3 6 3 2 2 0 1 4 3 1 2 6 2 5 7 4 5 3 4 5 8 8 6 16 13 8 10 16 14 13 15 17
29 27 25 23 20 17 14 13 11 9 9 9 4 3 5 2 8 5 3 4 6 3 3 2 6 7 5 9 5 7 7 9 9 10 8 8 8 11 10 10 13 14 14 15 14
31 29 27 25 22 19 17 15 12 10 6 4 2 2 3 5 5 9 3 6 3 7 3 4 6 7 10 10 19 8 4 5 12 9 15 14 21 17 7 16 17 16 15 14 16
33 31 29 27 25 23 17 9 6 2 7 8 8 4 2 3 3 6 6 7 4 3 12 3 10 13 20 19 2 8 7 14 11 8 15 21 20 19 16 10 12 10 12 15 18
36 34 32 30 28 26 13 7 8 7 4 13 5 16 3 4 3 5 10 11 10 15 7 4 18 17 18 16 17 8 14 11 5 9 8 10 23 22 12 8 16 18 14 15 16
36 36 35 32 30 21 16 7 8 3 4 4 17 10 5 6 6 13 15 11 7 18 15 19 10 13 14 19 11 12 15 12 6 2 7 3 14 21 10 11 9 12 15 18 20
41 39 37 35 24 17 15 15 7 5 5 6 9 8 9 7 8 7 17 8 6 14 23 16 16 8 10 11 20 21 14 16 17 8 7 10 9 21 20 16 18 20 16 13 16
32 42 41 38 16 19 16 10 6 8 2 8 8 3 13 13 8 8 7 7 9 3 8 12 14 22 12 12 7 4 6 17 16 15 8 5 7 12 10 23 23 21 21 22 17
20 43 41 24 11 19 18 15 6 9 11 5 7 12 14 14 0 6 8 6 3 7 8 4 2 3 8 3 6 6 5 5 6 1 8 16 13 7 17 24 24 20 24 24 20
22 44 38 19 19 22 19 11 6 7 5 9 10 11 14 12 14 8 11 11 9 6 7 1 2 2 3 8 3 5 8 2 3 5 8 11 13 18 9 9 23 24 22 22 19
16 43 33 16 23 26 16 9 6 7 7 4 9 14 13 11 13 15 10 14 15 7 4 9 5 9 5 6 6 17 11 5 6 6 3 7 15 15 19 23 8 17 21 19 18
25 19 20 21 26 21 19 17 12 9 9 12 12 12 5 8 4 14 20 19 15 20 9 8 7 6 8 1 5 6 7 8 6 1 2 7 7 9 5 7 7 6 8 11 12
2 13 17 27 29 19 19 12 7 7 10 12 8 5 8 9 10 9 12 14 17 23 13 7 6 6 5 1 3 4 10 7 2 6 6 6 6 7 11 12 8 8 9 9 8
10 9 19 26 19 17 21 14 6 6 8 6 7 8 7 9 10 6 6 6 26 20 20 3 1 5 7 9 13 6 6 4 7 4 4 3 7 7 12 15 13 9 8 9 9
5 6 21 24 16 12 16 13 8 10 6 4 6 6 6 9 8 11 9 8 21 19 28 12 5 6 9 1 6 1 7 8 7 8 5 1 8 2 6 8 11 10 8 6 5
5 7 18 23 15 16 11 6 7 8 6 4 4 4 4 7 3 7 7 4 9 19 21 13 6 5 6 4 1 7 8 15 5 5 6 4 7 3 4 2 3 8 7 6 5
5 10 10 11 1 22 25 18 7 6 6 6 6 4 5 3 4 3 4 3 2 5 17 21 9 10 14 7 12 14 19 13 9 6 8 12 6 5 4 7 5 6 6 6 5
2 6 2 12 9 19 14 17 12 7 6 7 3 5 8 5 5 6 5 5 5 9 10 9 7 12 2 7 13 19 21 19 19 11 17 9 9 9 8 9 7 6 5 5 7
3 9 2 13 17 22 15 21 21 7 9 7 7 10 8 7 8 6 4 4 5 7 8 11 4 9 5 11 8 14 21 26 29 24 11 11 9 7 4 6 5 7 7 8 8
2 2 9 17 17 16 12 21 23 11 4 10 10 7 11 14 10 6 2 3 5 3 3 6 6 8 6 8 11 10 26 30 23 26 23 16 15 5 6 8 10 9 9 9 9
Wind_Direction
235 235 235 237 238 236 220 200 195 196 252 352 340 316 316 326 113 153 205 213 206 146 99 108 30 105 94 35 320 294 193 210 225 223 247 297 217 27 330 112 63 74 150 167 148
224 228 230 233 235 234 219 209 191 185 209 252 342 321 295 278 248 230 225 219 180 149 122 154 138 118 79 91 309 255 205 209 214 240 253 211 175 168 112 131 69 60 58 128 142
219 219 222 224 229 228 225 206 195 174 167 192 295 323 232 179 280 254 191 214 181 179 130 93 120 55 150 127 108 324 238 317 278 307 305 223 197 179 132 227 194 167 150 150 150
215 216 214 214 221 219 225 221 196 169 172 171 158 229 203 192 232 316 293 187 183 146 95 114 106 156 149 186 135 178 287 326 313 317 282 221 161 198 176 211 182 160 156 154 166
211 211 211 209 209 211 221 229 200 175 178 191 162 177 127 220 243 31 347 196 195 164 149 152 150 138 197 168 132 158 244 313 325 315 283 304 236 197 214 210 153 145 155 168 176
206 206 204 201 196 196 213 227 191 178 188 193 186 192 221 241 148 193 151 166 198 184 170 157 178 176 130 187 204 178 153 273 310 306 283 270 267 164 237 156 145 156 170 175 180
205 200 199 196 186 181 201 213 197 168 198 187 181 141 233 227 40 227 189 184 203 205 185 187 151 182 136 133 121 103 163 300 281 291 285 254 281 233 226 148 163 173 173 178 186
202 198 193 189 184 176 183 171 155 153 190 167 165 127 240 196 150 175 261 240 68 80 233 37 120 61 132 116 77 129 130 231 236 249 229 248 259 240 193 160 181 182 177 181 187
196 195 189 184 178 171 175 165 151 144 125 139 138 189 241 11 200 180 175 159 86 45 38 173 161 161 154 162 146 212 200 198 261 219 272 222 274 239 221 186 201 189 187 187 188
192 189 187 180 173 169 164 158 159 136 140 98 27 92 220 209 181 164 164 139 130 132 115 228 196 195 181 207 206 164 159 186 221 203 232 257 246 273 262 200 202 196 192 188 189
188 184 183 174 171 163 150 122 116 224 207 187 180 234 72 115 50 159 136 143 109 211 208 196 231 216 206 207 234 171 186 199 205 214 198 232 261 253 253 216 203 200 197 196 198
185 181 178 171 167 161 159 169 174 168 167 236 217 219 176 183 132 182 139 177 175 210 179 176 225 219 230 214 205 177 187 222 291 216 184 221 244 255 243 222 207 197 202 203 209
186 177 173 168 163 161 176 184 143 115 113 209 218 203 166 173 215 190 177 185 216 200 202 220 244 209 203 216 227 203 199 187 186 66 218 321 250 249 240 223 213 221 210 207 195
179 175 168 159 163 166 180 189 150 115 65 253 189 223 158 135 244 172 187 174 218 231 211 234 221 211 183 194 208 229 217 238 239 229 251 183 267 234 230 234 218 217 213 207 201
200 172 164 162 146 175 162 156 135 62 90 216 175 178 163 176 149 198 156 175 207 218 196 198 190 196 219 204 178 188 168 220 226 229 227 214 250 258 233 225 226 216 212 212 201
296 166 161 163 144 160 150 147 78 61 240 168 143 167 159 197 159 125 169 74 70 139 322 126 280 228 169 88 170 105 74 54 57 328 235 207 207 207 219 223 221 215 211 208 206
276 163 162 160 159 151 145 142 128 159 249 179 171 172 176 177 208 172 187 178 162 143 174 40 114 281 181 99 38 135 140 152 200 186 237 202 213 237 223 237 215 208 205 208 207
259 163 166 160 149 148 149 135 128 202 189 170 160 162 184 164 195 185 168 208 208 162 158 180 203 185 192 179 175 174 196 162 189 196 247 115 234 235 232 236 245 218 206 198 197
209 182 163 157 152 154 149 181 193 185 145 148 148 176 199 174 150 189 199 212 198 189 191 178 202 181 198 150 163 149 199 130 98 313 306 216 264 304 246 231 210 213 167 184 191
185 171 163 156 151 155 158 181 176 175 129 148 141 165 173 166 166 185 178 202 207 199 192 214 171 213 131 158 39 154 144 94 122 198 225 259 264 223 214 219 226 202 203 187 177
218 164 162 154 150 158 179 178 160 176 138 140 147 143 165 172 191 187 212 238 201 191 203 148 190 158 144 206 173 156 162 148 122 214 228 282 254 215 205 216 197 204 216 204 195
126 162 161 151 162 173 174 165 129 153 112 101 93 107 138 169 177 207 215 234 204 191 197 181 120 170 195 41 234 12 189 166 162 180 248 307 274 347 290 230 173 178 192 208 187
145 131 163 161 165 168 146 170 145 154 131 118 119 144 158 157 167 197 207 253 212 208 189 160 171 138 138 130 20 210 201 203 100 101 197 187 264 337 359 11 107 153 178 193 207
171 138 156 175 244 162 153 174 138 136 121 114 133 135 110 149 246 208 209 276 140 265 277 179 179 188 190 189 150 191 192 211 182 159 168 214 299 269 249 220 171 178 194 193 205
223 133 71 151 143 159 147 166 163 148 124 120 183 159 148 173 191 215 228 254 241 216 214 260 201 191 146 145 169 185 186 184 198 189 190 186 201 257 224 216 191 179 166 183 202
162 145 67 142 151 153 164 184 174 135 135 163 119 185 182 190 176 163 234 184 246 330 215 210 253 172 206 163 143 178 185 188 204 201 221 253 272 226 210 149 168 191 193 214 216
281 48 121 155 155 157 181 169 181 133 58 151 169 149 203 228 235 249 210 246 228 272 330 308 177 177 212 166 143 196 188 201 206 202 194 212 216 196 164 180 207 211 211 227 222